Cambridge, MN

5:10 AM CST on February 10, 2016 (GMT -0600)
Cambridge Municipal

Weather History for KCBG - November, 2013

Change the Weather History Date:

Sunday, November 24, 2013

  Actual Average Record
Temperature  
Mean Temperature 18 °F -  
Max Temperature 32 °F 33 °F 55 °F (2006)
Min Temperature 3 °F 15 °F -12 °F (1985)
Degree Days  
Heating Degree Days 48    
Moisture  
Dew Point 9 °F    
Average Humidity 62    
Maximum Humidity 73    
Minimum Humidity 47    
Precipitation  
Precipitation 0.00 in - - ()
Sea Level Pressure  
Sea Level Pressure 30.27 in    
Wind  
Wind Speed 8 mph (South)    
Max Wind Speed 23 mph    
Max Gust Speed 29 mph    
Visibility 10 miles    
Events      
Averages and records for this station are not official NWS values.
T = Trace of Precipitation, MM = Missing Value Source: NWS Daily Summary

Daily Weather History Graph

Daily Weather History Graph

Search for Another Location

Airport or City:

Trip Planner

Search our weather history database for the weather conditions in past years. The results will help you decide how hot, cold, wet, or windy it might be!

Date:

Astronomy

Nov. 24, 2013 Rise Set
Actual Time 7:24 AM CST 4:34 PM CST
Civil Twilight 6:51 AM CST 5:07 PM CST
Nautical Twilight 6:15 AM CST 5:44 PM CST
Astronomical Twilight 5:39 AM CST 6:19 PM CST
Moon 11:10 PM CST (11/24) 12:04 PM CST (11/24)
Length of Visible Light 10h 15m
Length of Day
9h 09m
Waning Gibbous, 60% of the Moon is Illuminated
Nov 24
Waning Gibbous
Nov 25
Last Quarter
Dec 2
New
Dec 9
First Quarter
Dec 17
Full

Hourly Weather History & Observations

Time (CST) Temp. Windchill Dew Point Humidity Pressure Visibility Wind Dir Wind Speed Gust Speed Precip Events Conditions
12:15 AM 3.2 °F - -4.0 °F 72% 30.66 in 10.0 mi Calm Calm - N/A   Clear
12:36 AM 3.2 °F - -4.0 °F 72% 30.65 in 10.0 mi Calm Calm - N/A   Clear
12:55 AM 3.2 °F - -4.0 °F 72% 30.64 in 10.0 mi Calm Calm - N/A   Clear
1:15 AM 3.2 °F - -4.0 °F 72% 30.65 in 10.0 mi Calm Calm - N/A   Clear
1:36 AM 5.0 °F - -2.2 °F 72% 30.64 in 10.0 mi Calm Calm - N/A   Clear
1:55 AM 5.0 °F - -2.2 °F 72% 30.63 in 10.0 mi Calm Calm - N/A   Clear
2:16 AM 5.0 °F - -2.2 °F 72% 30.61 in 10.0 mi Calm Calm - N/A   Clear
2:35 AM 6.8 °F - -0.4 °F 72% 30.60 in 10.0 mi Calm Calm - N/A   Clear
2:55 AM 8.6 °F - -0.4 °F 67% 30.61 in 10.0 mi Calm Calm - N/A   Clear
3:16 AM 8.6 °F - 1.4 °F 73% 30.60 in 10.0 mi Calm Calm - N/A   Clear
3:36 AM 8.6 °F - 1.4 °F 73% 30.59 in 10.0 mi Calm Calm - N/A   Clear
3:56 AM 8.6 °F 0.1 °F 1.4 °F 73% 30.57 in 10.0 mi SSE 4.6 mph - N/A   Clear
4:15 AM 8.6 °F 2.0 °F 1.4 °F 73% 30.56 in 10.0 mi SE 3.5 mph - N/A   Clear
4:36 AM 8.6 °F 2.0 °F 1.4 °F 73% 30.56 in 10.0 mi South 3.5 mph - N/A   Clear
4:55 AM 8.6 °F - 1.4 °F 73% 30.55 in 10.0 mi Calm Calm - N/A   Clear
5:16 AM 8.6 °F 2.0 °F 1.4 °F 73% 30.54 in 10.0 mi SSE 3.5 mph - N/A   Clear
5:36 AM 8.6 °F 0.1 °F 1.4 °F 73% 30.53 in 10.0 mi SSE 4.6 mph - N/A   Clear
5:55 AM 8.6 °F 0.1 °F 1.4 °F 73% 30.52 in 10.0 mi SSE 4.6 mph - N/A   Clear
6:14 AM 8.6 °F -2.6 °F 1.4 °F 73% 30.52 in 10.0 mi SSE 6.9 mph - N/A   Clear
6:35 AM 8.6 °F -1.3 °F 1.4 °F 73% 30.50 in 10.0 mi SSE 5.8 mph - N/A   Clear
6:55 AM 10.4 °F -0.4 °F 1.4 °F 67% 30.50 in 10.0 mi SSE 6.9 mph - N/A   Clear
7:16 AM 10.4 °F -0.4 °F 1.4 °F 67% 30.49 in 10.0 mi SSE 6.9 mph - N/A   Clear
7:36 AM 10.4 °F -0.4 °F 1.4 °F 67% 30.48 in 10.0 mi SSE 6.9 mph - N/A   Clear
7:55 AM 10.4 °F -0.4 °F 1.4 °F 67% 30.47 in 10.0 mi SSE 6.9 mph - N/A   Clear
8:16 AM 10.4 °F -2.4 °F 3.2 °F 73% 30.46 in 10.0 mi SSE 9.2 mph - N/A   Clear
8:35 AM 12.2 °F -0.2 °F 3.2 °F 67% 30.45 in 10.0 mi SSE 9.2 mph - N/A   Clear
8:55 AM 14.0 °F 0.5 °F 5.0 °F 67% 30.44 in 10.0 mi SSE 11.5 mph - N/A   Clear
9:15 AM 15.8 °F 2.1 °F 5.0 °F 62% 30.42 in 10.0 mi SSE 12.7 mph 18.4 mph N/A   Clear
9:34 AM 17.6 °F 3.7 °F 6.8 °F 63% 30.41 in 10.0 mi SSE 13.8 mph 19.6 mph N/A   Clear
9:56 AM 17.6 °F 2.7 °F 6.8 °F 63% 30.38 in 10.0 mi SSE 16.1 mph 21.9 mph N/A   Clear
10:15 AM 19.4 °F 5.5 °F 6.8 °F 58% 30.36 in 10.0 mi SSE 15.0 mph 19.6 mph N/A   Clear
10:36 AM 21.2 °F 8.9 °F 8.6 °F 58% 30.34 in 10.0 mi South 12.7 mph 21.9 mph N/A   Clear
10:55 AM 23.0 °F 9.2 °F 8.6 °F 54% 30.32 in 10.0 mi South 17.3 mph 24.2 mph N/A   Clear
11:15 AM 24.8 °F 10.7 °F 8.6 °F 50% 30.29 in 10.0 mi South 19.6 mph 25.3 mph N/A   Clear
11:36 AM 24.8 °F 10.7 °F 10.4 °F 54% 30.27 in 10.0 mi South 19.6 mph 28.8 mph N/A   Clear
11:56 AM 26.6 °F 13.8 °F 10.4 °F 51% 30.25 in 10.0 mi South 17.3 mph 24.2 mph N/A   Clear
12:16 PM 28.4 °F 16.2 °F 12.2 °F 51% 30.24 in 10.0 mi South 17.3 mph 26.5 mph N/A   Clear
12:36 PM 28.4 °F 15.8 °F 12.2 °F 51% 30.21 in 10.0 mi South 18.4 mph 25.3 mph N/A   Clear
12:55 PM 28.4 °F 16.2 °F 12.2 °F 51% 30.20 in 10.0 mi South 17.3 mph 26.5 mph N/A   Clear
1:14 PM 30.2 °F 18.5 °F 12.2 °F 47% 30.18 in 10.0 mi South 17.3 mph 27.6 mph N/A   Clear
1:35 PM 30.2 °F 17.4 °F 14.0 °F 51% 30.16 in 10.0 mi South 20.7 mph 24.2 mph N/A   Clear
1:55 PM 30.2 °F 18.9 °F 15.8 °F 55% 30.15 in 10.0 mi South 16.1 mph 28.8 mph N/A   Clear
2:15 PM 32.0 °F 21.6 °F 15.8 °F 51% 30.14 in 10.0 mi South 15.0 mph 25.3 mph N/A   Clear
2:35 PM 30.2 °F 18.9 °F 15.8 °F 55% 30.13 in 10.0 mi South 16.1 mph 24.2 mph N/A   Clear
2:54 PM 32.0 °F 21.6 °F 15.8 °F 51% 30.12 in 10.0 mi South 15.0 mph 21.9 mph N/A   Clear
3:15 PM 32.0 °F 20.1 °F 15.8 °F 51% 30.11 in 10.0 mi South 19.6 mph 24.2 mph N/A   Clear
3:36 PM 32.0 °F 21.2 °F 15.8 °F 51% 30.10 in 10.0 mi South 16.1 mph 19.6 mph N/A   Clear
3:55 PM 32.0 °F 22.5 °F 15.8 °F 51% 30.09 in 10.0 mi South 12.7 mph 23.0 mph N/A   Clear
4:15 PM 32.0 °F 21.6 °F 15.8 °F 51% 30.08 in 10.0 mi South 15.0 mph 20.7 mph N/A   Clear
4:35 PM 30.2 °F 19.8 °F 15.8 °F 55% 30.06 in 10.0 mi South 13.8 mph 20.7 mph N/A   Clear
4:56 PM 30.2 °F 18.1 °F 15.8 °F 55% 30.04 in 10.0 mi South 18.4 mph 23.0 mph N/A   Clear
5:15 PM 30.2 °F 16.8 °F 15.8 °F 55% 30.02 in 10.0 mi South 23.0 mph 27.6 mph N/A   Clear
5:36 PM 30.2 °F 18.1 °F 15.8 °F 55% 30.01 in 10.0 mi South 18.4 mph 25.3 mph N/A   Clear
5:55 PM 30.2 °F 19.3 °F 15.8 °F 55% 30.00 in 10.0 mi South 15.0 mph 23.0 mph N/A   Clear
6:15 PM 30.2 °F 17.4 °F 15.8 °F 55% 29.99 in 10.0 mi South 20.7 mph 25.3 mph N/A   Clear
6:36 PM 30.2 °F 18.9 °F 15.8 °F 55% 29.99 in 10.0 mi South 16.1 mph 23.0 mph N/A   Clear
6:56 PM 30.2 °F 18.1 °F 17.6 °F 60% 29.98 in 10.0 mi South 18.4 mph 24.2 mph N/A   Clear
7:15 PM 30.2 °F 18.5 °F 17.6 °F 60% 29.98 in 10.0 mi South 17.3 mph 25.3 mph N/A   Clear
7:35 PM 30.2 °F 18.1 °F 17.6 °F 60% 29.98 in 10.0 mi South 18.4 mph 24.2 mph N/A   Clear
7:55 PM 30.2 °F 19.3 °F 17.6 °F 60% 29.97 in 10.0 mi South 15.0 mph 23.0 mph N/A   Clear
8:15 PM 30.2 °F 20.8 °F 17.6 °F 60% 29.98 in 10.0 mi SSW 11.5 mph 18.4 mph N/A   Clear
8:35 PM 30.2 °F 20.8 °F 17.6 °F 60% 29.96 in 10.0 mi South 11.5 mph 20.7 mph N/A   Clear
8:55 PM 30.2 °F 19.8 °F 17.6 °F 60% 29.96 in 10.0 mi South 13.8 mph 20.7 mph N/A   Clear
9:16 PM 30.2 °F 18.9 °F 17.6 °F 60% 29.96 in 10.0 mi SSW 16.1 mph 21.9 mph N/A   Clear
9:35 PM 30.2 °F 20.2 °F 17.6 °F 60% 29.95 in 10.0 mi South 12.7 mph 19.6 mph N/A   Clear
9:55 PM 30.2 °F 18.5 °F 17.6 °F 60% 29.94 in 10.0 mi South 17.3 mph 25.3 mph N/A   Clear
10:15 PM 30.2 °F 19.3 °F 17.6 °F 60% 29.93 in 10.0 mi South 15.0 mph 27.6 mph N/A   Clear
10:35 PM 30.2 °F 19.3 °F 17.6 °F 60% 29.92 in 10.0 mi SSW 15.0 mph 25.3 mph N/A   Clear
10:55 PM 30.2 °F 19.3 °F 17.6 °F 60% 29.91 in 10.0 mi South 15.0 mph 23.0 mph N/A   Clear
11:16 PM 30.2 °F 19.3 °F 17.6 °F 60% 29.90 in 10.0 mi South 15.0 mph 28.8 mph N/A   Clear
11:35 PM 30.2 °F 18.5 °F 17.6 °F 60% 29.89 in 10.0 mi South 17.3 mph 23.0 mph N/A   Scattered Clouds
11:56 PM 30.2 °F 20.2 °F 17.6 °F 60% 29.88 in 10.0 mi SSW 12.7 mph 20.7 mph N/A   Mostly Cloudy